Погода в Патхумтхани

Таиланд     13°58′07″N   100°33′14″E
темп.,
°C
ветер,
м/с
пор.,
м/с
влажн.,
%
обл.,
%
осадки,
мм/ч
давл.,
гПа
погр.,
м
24 мая, вт
вт2401:00+28ююз3675100 0.0 1006202
04:00+27ю367863 0.0 1005247
07:00+28ююз3775100 0.0 1007492
10:00+32юз585798 0.0 10081438
13:00+31ююз5860100 0.1 10071283
16:00+30ююз6864100 0.3 1006841
19:00+28юз586799 0.3 1007375
22:00+27юз4869100 0.0 1009457
25 мая, ср
ср2501:00+26юз377096 0.0 1009306
04:00+25з2483100 1.0 1008130
07:00+25ю2385100 4.4 1009166
10:00+27ююз2381100 0.0 1010304
13:00+32з4756100 0.0 10081653
16:00+32з4654100 0.3 10061468
19:00+29юз476799 0.4 1007481
22:00+28юз3870100 0.0 1008362
26 мая, чт
чт2601:00+27зюз3773100 0.0 1007330
04:00+26зюз377788 0.0 1006271
07:00+27зюз3874100 0.0 1007317
10:00+29зюз3667100 0.0 1008492
13:00+33зюз575387 0.0 10061315
16:00+34зюз584659 0.0 10032019
19:00+31юз486090 0.0 1004556
22:00+28юз487172 0.2 1006346
27 мая, пт
пт2701:00+27юз487364 0.2 1005397
04:00+26юз377796 0.0 1004320
07:00+27юз3776100 0.0 1005398
10:00+29зюз486883 0.0 1007725
13:00+30зюз6116196 0.0 10051097
16:00+28зюз51066100 0.0 1003767
19:00+27зюз4116672 0.0 1004616
22:00+26зюз3672100 0.0 1005253
28 мая, сб
сб2801:00+26юз2577100 0.0 1004226
04:00+26юз367661 0.0 1003248
07:00+27юз367365 0.0 1005269
10:00+30зюз595816 0.0 1006903
13:00+32зюз71052100 0.0 10041430
16:00+28зюз61165100 0.0 1003920
19:00+27юз51071100 0.0 1003743
22:00+26юз4106998 0.0 1005480